Shelby, NC

2:43 AM EST on December 14, 2019 (GMT -0500)
Shelby Municipal

Weather History for KEHO - October, 2019

Change the Weather History Date:

Saturday, October 19, 2019

  Actual Average (KHKY) Record (KHKY)
Temperature  
Mean Temperature 50 °F -  
Max Temperature 59 °F 68 °F 87 °F (2016)
Min Temperature 42 °F 44 °F 29 °F (1976)
Degree Days  
Heating Degree Days 14    
Moisture  
Dew Point 46 °F    
Average Humidity 86    
Maximum Humidity 100    
Minimum Humidity 57    
Precipitation  
Precipitation 0.81 in - - ()
Sea Level Pressure  
Sea Level Pressure 30.01 in    
Wind  
Wind Speed 4 mph (NE)    
Max Wind Speed 17 mph    
Max Gust Speed 21 mph    
Visibility 9 miles    
Events Rain    
Averages and records for this station are not official NWS values.
T = Trace of Precipitation, MM = Missing Value Source: NWS Daily Summary

Daily Weather History Graph

Daily Weather History Graph

Search for Another Location

Airport or City:

Astronomy

Oct. 19, 2019 Rise Set
Actual Time 7:35 AM EDT 6:46 PM EDT
Civil Twilight 7:10 AM EDT 7:12 PM EDT
Nautical Twilight 6:40 AM EDT 7:41 PM EDT
Astronomical Twilight 6:11 AM EDT 8:11 PM EDT
Moon 11:03 PM EDT (10/19) 12:57 PM EDT (10/19)
Length of Visible Light 12h 02m
Length of Day
11h 10m
Waning Gibbous, 70% of the Moon is Illuminated
Oct 19
Waning Gibbous
Oct 21
Last Quarter
Oct 27
New
Nov 4
First Quarter
Nov 12
Full

Hourly Weather History & Observations

Time (EDT) Temp. Windchill Dew Point Humidity Pressure Visibility Wind Dir Wind Speed Gust Speed Precip Events Conditions
12:15 AM 47.3 °F - 45.0 °F 92% 30.04 in 10.0 mi Calm Calm - N/A   Clear
12:35 AM 46.9 °F - 45.0 °F 93% 30.04 in 10.0 mi Calm Calm - N/A   Clear
12:55 AM 45.7 °F 44.4 °F 44.8 °F 97% 30.04 in 10.0 mi ENE 3.5 mph - N/A   Clear
1:15 AM 45.5 °F - 44.6 °F 97% 30.04 in 10.0 mi Calm Calm - N/A   Clear
1:35 AM 45.9 °F 43.6 °F 44.6 °F 95% 30.05 in 10.0 mi NE 4.6 mph - N/A   Clear
1:55 AM 45.5 °F 43.2 °F 44.8 °F 97% 30.05 in 10.0 mi NNE 4.6 mph - N/A   Clear
2:15 AM 45.7 °F 43.4 °F 44.4 °F 95% 30.06 in 10.0 mi NE 4.6 mph - N/A   Clear
2:35 AM 45.0 °F 43.5 °F 44.1 °F 97% 30.05 in 10.0 mi NE 3.5 mph - N/A   Clear
2:55 AM 45.1 °F 42.8 °F 43.9 °F 95% 30.05 in 10.0 mi NNE 4.6 mph - N/A   Clear
3:15 AM 45.0 °F 43.5 °F 43.7 °F 95% 30.05 in 10.0 mi NNE 3.5 mph - N/A   Clear
3:35 AM 44.6 °F - 43.0 °F 94% 30.06 in 10.0 mi Calm Calm - N/A   Clear
4:15 AM 44.6 °F 42.2 °F 43.2 °F 95% 30.05 in 10.0 mi NNE 4.6 mph - N/A   Clear
4:35 AM 45.1 °F 42.8 °F 43.0 °F 92% 30.05 in 10.0 mi NNE 4.6 mph - N/A   Clear
4:55 AM 43.7 °F 41.1 °F 42.4 °F 95% 30.06 in 10.0 mi NNE 4.6 mph - N/A   Clear
5:15 AM 43.2 °F 40.5 °F 42.4 °F 97% 30.05 in 10.0 mi NE 4.6 mph - N/A   Clear
5:35 AM 43.0 °F 40.3 °F 42.3 °F 97% 30.05 in 10.0 mi NE 4.6 mph - N/A   Clear
5:55 AM 43.9 °F 41.3 °F 42.3 °F 94% 30.05 in 10.0 mi NE 4.6 mph - N/A   Clear
6:15 AM 43.2 °F 41.5 °F 41.9 °F 95% 30.04 in 10.0 mi NE 3.5 mph - N/A   Clear
6:35 AM 42.8 °F 41.1 °F 41.9 °F 97% 30.05 in 10.0 mi NE 3.5 mph - N/A   Clear
6:55 AM 43.5 °F - 41.9 °F 94% 30.06 in 10.0 mi Calm Calm - N/A   Clear
7:15 AM 43.5 °F 41.9 °F 41.7 °F 93% 30.06 in 10.0 mi NE 3.5 mph - N/A   Clear
7:35 AM 43.2 °F 40.5 °F 41.9 °F 95% 30.06 in 10.0 mi NE 4.6 mph - N/A   Clear
7:55 AM 43.7 °F 41.1 °F 42.3 °F 95% 30.06 in 10.0 mi NNE 4.6 mph - N/A   Clear
8:15 AM 44.6 °F 43.1 °F 42.6 °F 93% 30.07 in 10.0 mi NNE 3.5 mph - N/A   Clear
8:35 AM 45.0 °F 43.5 °F 43.2 °F 93% 30.08 in 10.0 mi NE 3.5 mph - N/A   Clear
8:55 AM 45.5 °F 44.2 °F 43.5 °F 93% 30.08 in 10.0 mi NE 3.5 mph - N/A   Clear
9:15 AM 46.4 °F 44.3 °F 43.9 °F 91% 30.09 in 10.0 mi NE 4.6 mph - N/A   Clear
9:35 AM 46.4 °F 43.5 °F 44.2 °F 92% 30.09 in 10.0 mi NE 5.8 mph - N/A   Clear
9:55 AM 47.3 °F - 44.8 °F 91% 30.10 in 10.0 mi NE 3.5 mph - N/A   Scattered Clouds
10:15 AM 48.4 °F - 45.0 °F 88% 30.09 in 10.0 mi NNE 6.9 mph - N/A   Scattered Clouds
10:35 AM 50.0 °F - 46.2 °F 87% 30.09 in 10.0 mi North 4.6 mph - N/A   Clear
10:55 AM 51.1 °F - 46.2 °F 83% 30.09 in 10.0 mi NNE 4.6 mph - N/A   Scattered Clouds
11:15 AM 51.8 °F - 46.4 °F 82% 30.09 in 10.0 mi NNE 4.6 mph - N/A   Mostly Cloudy
11:35 AM 52.7 °F - 46.9 °F 81% 30.10 in 10.0 mi NE 3.5 mph - N/A   Overcast
11:55 AM 53.6 °F - 47.7 °F 80% 30.09 in 10.0 mi NNE 5.8 mph - N/A   Overcast
12:15 PM 54.7 °F - 47.7 °F 77% 30.09 in 10.0 mi North 3.5 mph - N/A   Overcast
12:35 PM 56.3 °F - 46.2 °F 69% 30.09 in 10.0 mi NE 3.5 mph - N/A   Mostly Cloudy
12:55 PM 56.5 °F - 46.2 °F 68% 30.08 in 10.0 mi NE 3.5 mph - N/A Rain Light Rain
1:15 PM 57.7 °F - 45.1 °F 63% 30.07 in 10.0 mi NE 4.6 mph - N/A   Overcast
1:35 PM 58.6 °F - 45.7 °F 62% 30.06 in 10.0 mi NE 5.8 mph - N/A   Overcast
1:55 PM 58.8 °F - 45.5 °F 61% 30.04 in 10.0 mi ENE 4.6 mph - N/A Rain Light Rain
2:15 PM 59.0 °F - 44.8 °F 59% 30.03 in 10.0 mi ENE 5.8 mph - N/A   Light Drizzle
2:35 PM 59.0 °F - 45.0 °F 60% 30.03 in 10.0 mi NE 5.8 mph - N/A   Overcast
2:55 PM 59.4 °F - 44.8 °F 58% 30.01 in 10.0 mi NNE 8.1 mph - N/A   Overcast
3:15 PM 59.0 °F - 44.1 °F 58% 30.01 in 10.0 mi NE 6.9 mph - N/A   Overcast
3:35 PM 59.4 °F - 44.6 °F 58% 30.00 in 10.0 mi NNE 8.1 mph - N/A   Overcast
3:55 PM 59.4 °F - 45.1 °F 59% 29.99 in 10.0 mi ENE 6.9 mph - N/A   Overcast
4:15 PM 59.0 °F - 45.5 °F 61% 29.99 in 10.0 mi NNE 10.4 mph - N/A   Overcast
4:55 PM 59.2 °F - 45.7 °F 61% 29.97 in 10.0 mi NE 5.8 mph - N/A   Overcast
5:15 PM 59.4 °F - 44.2 °F 57% 29.97 in 10.0 mi ENE 5.8 mph - N/A   Overcast
5:35 PM 57.9 °F - 45.9 °F 64% 29.97 in 10.0 mi ENE 6.9 mph - N/A Rain Light Rain
6:15 PM 55.8 °F - 48.4 °F 76% 29.95 in 10.0 mi NE 5.8 mph - N/A   Light Drizzle
6:35 PM 55.0 °F - 49.1 °F 80% 29.95 in 10.0 mi NNE 6.9 mph - N/A Rain Light Rain
6:55 PM 53.6 °F - 50.2 °F 88% 29.94 in 7.0 mi NNE 8.1 mph - 0.03 in Rain Light Rain
7:15 PM 52.7 °F - 51.1 °F 94% 29.94 in 5.0 mi NE 6.9 mph - 0.05 in Rain Rain
7:35 PM 52.3 °F - 51.3 °F 96% 29.95 in 5.0 mi NNE 8.1 mph - 0.15 in Rain Heavy Rain
7:55 PM 52.0 °F - 51.3 °F 97% 29.94 in 4.0 mi NNE 9.2 mph - 0.26 in Rain Rain
8:15 PM 51.8 °F - 51.3 °F 98% 29.93 in 5.0 mi NNE 12.7 mph - 0.02 in Rain Rain
8:35 PM 51.8 °F - 51.4 °F 99% 29.92 in 7.0 mi NNE 11.5 mph - 0.05 in Rain Rain
9:15 PM 52.0 °F - 51.8 °F 99% 29.90 in 7.0 mi NNE 12.7 mph 19.6 mph 0.02 in Rain Light Rain
9:35 PM 52.0 °F - 51.6 °F 99% 29.90 in 7.0 mi NNE 12.7 mph 19.6 mph 0.06 in Rain Rain
9:55 PM 51.8 °F - 51.4 °F 99% 29.89 in 5.0 mi NE 11.5 mph - 0.13 in Rain Rain
10:15 PM 51.8 °F - 51.3 °F 98% 29.88 in 5.0 mi NE 11.5 mph 19.6 mph 0.05 in Rain Rain
10:35 PM 51.8 °F - 51.1 °F 97% 29.87 in 5.0 mi NE 12.7 mph 19.6 mph 0.15 in Rain Rain
10:55 PM 51.8 °F - 51.3 °F 98% 29.86 in 7.0 mi NNE 17.3 mph 20.7 mph 0.19 in Rain Rain
11:15 PM 51.8 °F - 51.3 °F 98% 29.87 in 10.0 mi NE 9.2 mph 19.6 mph 0.01 in Rain Rain
11:35 PM 51.8 °F - 51.4 °F 99% 29.86 in 5.0 mi NNE 10.4 mph 17.3 mph 0.08 in Rain Rain
11:55 PM 51.8 °F - 51.8 °F 100% 29.83 in 5.0 mi NNE 10.4 mph - 0.15 in Rain Rain